Location: Home
(42.5358°N, 72.7383°W)
Time: 12:03:15
(UTC-05:00)

A-11 Canister half - Pass Details

Date: 30 November 2021
Orbit: 1516 x 1684 km, 47.2° (Epoch: 26 January)

Event Time Altitude Azimuth Distance (km) Brightness Sun altitude
Rises 11:46:40 0° 286° (WNW) 4,874 11.5 25.7°
Reaches altitude 10° 11:49:48 10° 288° (WNW) 3,904 11.0 25.7°
Maximum altitude 11:59:54 75° 14° (NNE) 1,733 9.5 25.5°
Drops below altitude 10° 12:10:06 10° 100° (E) 3,943 11.3 25.3°
Sets 12:13:17 0° 102° (ESE) 4,924 11.7 25.2°
